NOAA 16 DEB

Satellite information

Favourite Embed

Satellite Type and Status

DEBRISIN ORBIT

Key statistics

Satellite NOAA 16 DEB at a glance.

Uptime

9056

Days in orbit

Revolutions

≈ 14.5

Per day

Orbit

SSO

Sun Synchronous Orbit

Inclination

99.0

Latest

Satellite identification and parameters

Extended collection of information and parameters for NOAA 16 DEB.

Object identification

Identified? True

Debris? True

Object name: NOAA 16 DEB

International designator: 2000-055FJ

Object number (NORAD): 41258

Object ID (CCSDS): 41258

Country: UNITED STATES OF AMERICA (US)

Current information (Y/N): Y

RCS size: SMALL

Orbital parameters

Period: 99.019 minutes

Inclination: 99.0031 deg

SMA: 7089.891 km

Apoapsis: 743.622 km

Periapsis: 679.891 km

RAAN: 60.912 deg

Eccentricy: 0.0044945

Argument of periapsis: 20.4709 deg

Mean anomaly: 339.8274 deg

Mean motion: 14.54264463 rev/day

Mean motion (dot): 0.00006264 rev/day2

B* drag term: 0.0014694 1/REarth

Two-line elements (TLE)

Creation date: July 7, 2025, 6:34 p.m.

Reference frame: TEME

Reference center: EARTH

Epoch: July 7, 2025, 2:15 p.m. UTC

TLE line 0: 0 NOAA 16 DEB

TLE line 1: 1 41258U 00055FJ 25188.59386164 .00006264 00000-0 14694-2 0 9990

TLE line 2: 2 41258 99.0031 60.9120 0044945 20.4709 339.8274 14.54264463496330

Live tracking on map

Real-time ground track for satellite NOAA 16 DEB.

In-orbit conjunctions

A list of the most updated potential collisions computed for object NOAA 16 DEB.

Target Orbit TCA Probability of collision Miss distance Type
CZ-6A DEB LEO 2024-12-21 12:50:35 0.00024421 136.0 (m) DEBRIS
CZ-6A DEB LEO 2024-11-17 22:30:33 0.0002237713 519.0 (m) DEBRIS
COSMOS 1898 LEO 2024-08-15 14:22:57 0.0001961783 212.0 (m) PAYLOAD

Associated space launch

The NOAA K, L and M POES satellites begin the fifth generation of improved environmental monitoring in support of NOAA missions. The instrument payload has significant improvements and additions/deletions. The instrument changes have effected the spacecraft subsystems and data formats.

NOAA 16 DEB was lifted into orbit during the mission ‘Titan II SLV | NOAA 16’, on board a Titan II SLV space rocket.

The launch took place on Sept. 21, 2000, 10:22 a.m. from Space Launch Complex 4W.

For more information about the launch, click the button.

Launch to space Titan II SLV | NOAA 16
Titan II SLV | NOAA 16

Agency: N/A

Status: Launch Successful

Launch date: Sept. 21, 2000, 10:22 a.m. UTC

Rocket: Titan II SLV

Launch pad: Space Launch Complex 4W

Location: Vandenberg SFB, CA, USA

...

Latest news about this satellite

There are no fresh news available about this satellite. Check back as we update our databases every day.


Newsletter sign-up

Weekly statistics, charts and insights to help you stay on top of the space industry.